This demonstration page uses our WeatherBlox Daily Observations layout. Learn more.

Left ArrowRight Arrow

31.84235, -102.49876

Hourly Observations for August 21, 2017

Temp ( °F °C ) Dew Point ( °F °C ) Humidity (%) Winds ( mph kmh ) Pressure ( in mb ) Visibility ( mi km ) Precip ( " mm )
12:53 am 00:53 Clear 77 25 65 18.3 66 66 Calm 29.95 1014 10 16 0.00 0.00
1:53 am 01:53 Clear 77 25 65 18.3 66 66 Calm 29.95 1014 10 16 0.00 0.00
2:53 am 02:53 Clear 76 24.4 65 18.3 69 69 E 7 11 29.95 1014 10 16 0.00 0.00
3:53 am 03:53 Clear 76 24.4 65 18.3 69 69 E 3 6 29.94 1014 10 16 0.00 0.00
4:53 am 04:53 Clear 77 25 64 17.8 64 64 S 9 15 29.95 1014 10 16 0.00 0.00
5:17 am 05:17 Clear 74 23.3 66 18.9 76 76 WSW 16 26 29.94 1014 10 16 0.00 0.00
5:53 am 05:53 Clear 73 22.8 68 20 84 84 W 5 7 29.97 1015 10 16 0.00 0.00
6:53 am 06:53 Clear 72 22.2 67 19.4 84 84 W 3 6 29.97 1015 10 16 0.00 0.00
7:53 am 07:53 Sunny 72 22.2 67 19.4 84 84 N 3 6 29.99 1016 10 16 0.00 0.00
8:53 am 08:53 Sunny 77 25 66 18.9 69 69 SSE 5 7 30.00 1016 10 16 0.00 0.00
9:53 am 09:53 Sunny 79 26.1 66 18.9 65 65 S 13 20 30.01 1016 10 16 0.00 0.00
10:53 am 10:53 Sunny 82 27.8 66 18.9 58 58 S 12 19 30.01 1016 10 16 0.00 0.00
11:53 am 11:53 Mostly Sunny 84 28.9 65 18.3 53 53 S 13 20 30.01 1016 10 16 0.00 0.00
12:53 pm 12:53 Sunny 85 29.4 64 17.8 50 50 SSW 13 20 30.00 1016 10 16 0.00 0.00
1:53 pm 13:53 Sunny 87 30.6 65 18.3 48 48 SSW 14 22 29.99 1016 10 16 0.00 0.00
2:53 pm 14:53 Partly Cloudy 89 31.7 64 17.8 43 43 S 13 20 29.98 1015 10 16 0.00 0.00
3:53 pm 15:53 Mostly Cloudy 88 31.1 64 17.8 45 45 SSW 12 19 29.97 1015 10 16 0.00 0.03
4:53 pm 16:53 Partly Cloudy 90 32.2 60 15.6 37 37 SSW 14 22 29.94 1014 10 16 0.00 0.00
5:53 pm 17:53 Partly Cloudy 90 32.2 59 15 35 35 SSW 12 19 29.93 1014 10 16 0.00 0.00
6:53 pm 18:53 Mostly Sunny 89 31.7 60 15.6 38 38 S 10 17 29.93 1013 10 16 0.00 0.00
7:53 pm 19:53 Partly Cloudy 88 31.1 60 15.6 39 39 SSE 14 22 29.93 1014 10 16 0.00 0.00
8:53 pm 20:53 Clear 86 30 60 15.6 42 42 SSE 9 15 29.94 1014 10 16 0.00 0.00
9:53 pm 21:53 Clear 84 28.9 60 15.6 44 44 SSE 12 19 29.96 1014 10 16 0.00 0.00
10:53 pm 22:53 Clear 83 28.3 61 16.1 48 48 SSE 9 15 29.97 1015 10 16 0.00 0.00
11:53 pm 23:53 Clear 81 27.2 60 15.6 49 49 S 8 13 29.98 1015 10 16 0.00 0.00

Powered by AerisWeather